Theta_e
316 310 306 309 310 311 308 307 305 308 314 315 317 321 323 324 324 328 335 335 337 338 342 344 345 346 344 344 348 353 354 358 356 356 354 355 355 359 360 356 366 369 362 367
309 306 312 312 312 310 309 306 306 310 312 313 314 317 323 325 325 327 328 335 336 338 341 343 344 346 344 344 347 350 354 358 355 359 358 359 361 356 356 358 365 367 367 368
306 308 312 310 309 307 308 306 306 306 310 312 312 312 321 324 328 332 330 339 336 339 339 342 342 344 345 344 347 349 355 358 356 359 357 362 363 361 356 362 362 363 368 367
309 313 310 308 306 308 303 309 308 307 306 301 311 301 319 326 328 329 332 336 336 338 341 342 341 344 344 346 348 351 355 359 356 360 355 359 352 352 356 359 358 362 369 368
305 306 307 306 307 310 306 311 308 307 305 304 305 303 308 322 322 322 326 334 336 337 341 341 342 344 345 347 347 352 354 359 355 356 360 355 355 354 357 356 364 363 370 371
306 311 310 308 310 310 311 308 307 307 305 298 303 303 306 312 324 322 323 330 336 337 339 343 345 346 346 347 347 352 353 356 357 355 357 358 353 360 357 356 357 360 360 365
301 303 308 311 307 309 309 304 296 295 296 295 304 302 306 314 325 327 324 328 336 340 340 341 343 344 345 346 346 348 353 353 356 355 353 360 355 357 364 362 356 354 355 355
296 296 302 307 307 305 305 304 298 292 294 297 305 300 305 313 317 331 327 331 331 337 342 341 344 345 346 347 348 347 353 353 354 357 352 356 362 354 357 365 355 357 351 356
296 296 305 307 307 308 305 302 307 300 303 299 302 306 310 314 314 317 328 327 329 333 342 342 344 346 348 348 349 349 351 354 356 355 356 352 359 360 354 365 368 358 364 362
299 293 302 305 308 307 305 307 300 302 294 294 300 304 304 310 313 315 318 327 331 333 337 343 344 346 349 350 352 353 354 354 357 355 358 355 354 357 360 356 366 363 367 365
300 297 296 302 301 301 302 302 303 304 302 296 295 301 314 315 315 315 316 321 331 331 338 341 344 347 349 351 351 353 354 355 357 359 357 357 354 355 354 356 356 361 363 374
302 298 293 296 303 306 305 303 303 300 299 302 302 302 316 318 317 316 317 319 327 331 336 335 336 346 348 349 351 352 353 357 359 360 359 357 360 357 354 351 356 364 362 367
301 296 291 293 297 302 299 301 303 303 303 301 298 301 316 318 318 318 317 320 325 334 332 328 328 332 346 348 350 352 353 353 359 361 360 359 358 359 358 352 357 359 362 367
302 296 293 290 295 298 297 298 301 300 298 299 302 305 310 314 316 320 321 322 323 330 331 334 334 340 345 349 350 352 352 354 355 359 359 359 359 358 358 360 354 361 362 361
299 292 294 296 297 298 297 297 298 298 301 298 301 305 310 311 314 320 322 324 327 329 330 332 335 342 345 350 352 353 354 353 355 356 358 358 361 361 361 360 359 354 362 363
301 292 295 292 296 296 295 297 297 298 300 302 303 303 312 313 316 318 321 322 329 331 333 335 339 339 345 348 352 353 354 354 356 355 356 359 361 361 361 360 360 360 359 362
297 295 292 288 294 294 290 296 297 298 300 300 297 304 309 308 313 315 319 316 322 329 332 335 336 339 344 349 353 355 356 357 356 356 357 359 360 360 360 361 361 361 360 361
295 294 292 289 291 282 295 301 301 298 299 300 301 302 304 306 310 314 319 316 320 328 331 333 335 338 340 341 348 358 358 357 359 357 358 358 359 359 361 361 360 361 361 361
298 296 290 285 286 291 294 298 298 297 297 302 301 304 307 308 307 310 315 320 321 326 331 334 335 337 345 346 345 350 358 357 356 359 358 359 359 359 361 360 361 361 361 361
297 297 294 289 283 282 293 300 303 302 292 303 307 307 309 312 305 306 320 326 329 332 334 336 338 339 341 347 347 345 353 359 356 356 359 363 361 362 361 362 362 362 362 361
292 293 289 288 286 289 298 299 302 289 293 306 308 308 309 309 313 321 323 325 327 328 331 336 341 343 348 356 355 351 348 355 360 359 363 361 366 363 364 365 365 363 363 363
289 289 289 290 287 284 302 300 294 301 305 305 305 307 306 308 314 318 321 322 325 326 327 333 340 343 345 344 344 355 350 359 365 364 360 365 366 364 365 365 366 366 364 363
288 290 286 291 292 301 302 300 303 303 302 303 304 305 307 306 311 315 317 320 321 324 326 326 329 335 335 337 343 347 358 363 365 366 362 365 366 365 365 364 365 364 365 362
293 294 289 290 295 296 298 301 302 302 302 304 305 305 305 305 310 312 314 316 319 320 322 324 326 327 327 330 332 337 339 343 364 365 361 365 365 362 364 365 365 364 362 362
290 292 289 289 294 293 296 296 297 297 300 302 305 304 304 308 309 311 313 315 317 318 320 322 321 321 321 324 327 331 334 339 367 364 362 363 363 361 363 362 363 363 364 359
294 290 287 286 292 291 291 295 298 299 302 307 305 303 308 308 308 311 313 315 316 317 319 319 320 319 320 321 323 328 331 334 342 363 362 360 360 361 361 359 355 315 326 318
Wind_Speed
17 13 16 19 21 21 21 19 18 17 19 20 20 15 15 15 12 8 14 20 22 24 20 19 18 19 20 17 16 11 10 14 9 7 6 5 5 3 6 3 8 5 3 6
14 20 18 19 21 21 23 21 21 15 19 20 17 15 17 10 5 17 26 22 22 23 26 21 18 18 19 17 17 13 11 14 10 7 5 5 4 5 3 7 8 7 4 6
20 15 23 21 19 20 19 21 19 17 12 20 18 18 20 14 15 14 31 23 23 23 25 23 21 19 19 19 19 16 12 15 11 8 6 4 4 4 7 5 5 4 6 5
19 20 22 21 22 19 20 18 20 19 16 14 14 14 22 25 26 20 13 24 24 23 23 23 23 20 20 20 19 18 14 14 12 10 8 6 5 5 4 4 4 7 6 6
15 20 19 23 15 20 20 19 16 18 18 19 22 16 16 23 21 10 17 21 25 25 25 26 25 23 21 20 19 18 17 14 14 12 8 8 8 6 4 6 9 8 5 5
15 18 16 18 20 17 16 20 18 16 16 17 20 19 15 16 22 21 15 24 22 26 24 25 24 22 19 19 20 19 19 17 15 15 12 11 11 7 5 6 8 6 7 4
16 18 18 17 14 20 19 15 12 16 16 16 21 20 14 16 24 27 26 26 21 25 25 22 25 24 23 24 23 21 22 20 18 18 15 12 13 11 7 7 8 8 7 8
15 13 21 18 20 17 21 20 15 20 15 18 21 21 18 22 23 29 28 19 11 25 26 27 25 24 25 24 24 23 24 23 21 19 18 13 12 9 8 6 6 6 8 8
11 18 21 8 19 17 22 20 21 25 22 19 16 18 26 20 23 20 25 24 11 31 26 27 27 25 24 23 24 23 23 22 22 21 17 16 13 12 10 7 5 6 5 2
10 18 20 18 12 13 18 19 21 16 22 23 19 23 14 21 19 20 19 25 27 19 28 27 23 24 23 24 22 22 21 23 22 22 17 16 16 16 9 10 7 7 5 6
10 14 21 20 17 17 16 17 22 15 16 18 17 16 17 21 23 19 21 18 25 24 18 22 22 21 21 22 22 22 21 23 22 21 19 18 17 16 15 11 11 10 8 5
10 12 16 19 23 15 15 18 22 15 18 17 19 17 12 17 23 18 15 17 16 27 25 7 7 22 21 21 22 23 23 21 22 21 20 20 17 18 17 15 15 12 12 9
11 12 12 17 18 22 15 23 24 22 22 19 17 18 17 13 6 17 16 15 13 12 19 11 9 23 24 24 21 22 22 23 21 20 20 19 19 18 19 19 15 15 12 10
11 13 17 16 15 15 15 20 20 24 17 18 19 19 19 13 21 11 8 7 11 9 16 25 28 36 31 23 22 20 22 21 21 22 21 20 21 20 19 17 18 14 15 14
8 16 20 22 27 20 21 19 15 22 21 21 18 22 14 20 19 20 20 5 9 7 9 10 8 17 17 15 20 20 19 20 21 20 22 22 19 19 18 17 17 18 15 15
9 10 19 20 22 21 24 22 20 22 29 23 23 20 16 18 20 18 17 25 12 15 16 16 13 10 21 28 20 20 20 20 18 19 21 18 19 19 18 17 17 17 17 16
6 5 8 17 18 21 22 24 19 18 18 13 18 19 16 8 14 14 15 16 18 12 14 15 14 12 11 6 7 17 18 17 18 17 18 19 19 19 20 18 17 17 18 16
10 6 1 8 11 14 16 18 20 21 20 19 21 20 20 16 17 13 10 16 17 9 10 11 13 14 14 13 14 18 18 17 16 17 17 18 18 20 19 18 19 17 16 17
16 12 6 4 10 17 18 14 8 13 18 15 14 15 19 22 16 19 12 19 19 13 3 9 11 15 13 14 15 10 15 19 18 16 18 19 19 18 19 20 19 16 16 15
14 13 8 9 8 10 15 11 11 11 10 8 12 16 18 20 15 12 2 14 18 14 13 13 13 14 14 13 15 14 11 16 19 20 17 15 17 17 19 19 18 17 16 16
7 7 14 11 12 12 12 1 9 10 6 10 11 13 19 16 17 12 12 9 7 12 12 12 10 10 11 11 19 17 12 15 17 17 15 17 16 18 18 16 15 16 16 15
6 6 5 10 13 16 14 5 11 11 15 15 14 14 16 22 24 17 8 8 8 10 13 15 11 12 13 15 20 15 14 9 10 15 17 15 15 14 14 17 16 15 16 16
2 4 5 6 5 14 15 17 18 15 17 20 20 15 15 18 19 16 11 9 9 9 11 12 12 10 11 14 15 16 9 9 11 14 16 14 16 15 14 16 16 14 15 14
4 5 4 9 6 19 18 18 16 15 17 20 21 16 14 18 18 15 10 8 8 9 9 12 12 11 13 14 15 14 14 18 14 14 15 13 14 14 15 12 13 13 13 13
3 9 5 6 9 18 8 17 18 22 23 23 22 14 13 13 11 9 9 10 11 8 8 8 9 10 12 13 14 15 16 16 5 11 12 12 12 13 14 13 13 13 14 14
2 2 3 4 10 6 11 14 17 16 25 16 16 13 14 5 3 8 6 5 5 7 8 7 8 9 10 11 12 14 14 14 11 4 8 9 10 11 11 13 8 7 7 10
Wind_Direction
206 213 217 226 232 239 266 274 233 238 230 234 205 160 148 171 213 223 232 176 183 175 181 175 181 166 158 164 159 174 179 152 158 159 179 219 153 224 157 159 161 184 159 138
206 228 227 232 237 232 249 267 275 260 246 219 208 186 159 138 347 256 258 172 191 182 171 177 184 174 164 165 161 173 171 154 161 164 207 202 169 222 189 154 170 157 191 129
228 224 216 238 239 244 232 250 260 271 276 255 224 201 155 189 182 247 256 172 187 184 177 171 182 181 170 167 164 168 175 157 166 187 201 222 197 219 167 162 147 169 177 173
237 233 262 208 239 240 244 243 251 269 270 262 212 253 188 185 183 202 235 172 181 189 183 178 179 184 182 170 165 166 176 165 175 189 187 196 206 197 192 162 182 164 188 179
249 238 233 253 239 230 253 255 256 250 266 268 262 222 244 187 183 151 248 235 182 182 186 184 181 188 182 169 170 169 175 175 177 194 197 187 218 214 193 173 171 155 181 191
275 282 254 244 254 248 250 251 265 263 240 249 249 255 230 215 178 174 165 254 193 179 188 182 183 179 186 178 173 171 176 182 181 191 207 190 207 227 201 206 150 155 166 193
235 245 263 265 258 241 229 242 231 238 239 240 234 244 242 255 174 177 189 215 210 177 179 189 179 180 184 182 179 177 176 184 185 187 199 207 200 218 244 199 170 173 180 180
287 250 212 222 237 247 232 222 232 230 234 238 231 238 228 248 264 190 183 199 200 250 178 180 180 182 183 186 182 182 177 181 183 187 199 199 198 213 216 218 201 180 195 191
280 261 277 284 215 218 248 231 235 257 257 248 250 217 242 239 241 246 171 164 187 259 177 180 175 180 180 185 185 185 179 183 184 192 190 197 197 209 206 214 210 205 240 230
308 307 293 295 219 244 232 256 227 230 250 259 255 249 233 214 229 235 239 186 172 189 258 174 180 177 179 184 184 185 180 185 187 189 191 195 200 196 204 215 209 215 230 233
295 287 282 292 276 216 220 246 258 273 236 255 259 260 260 206 203 208 227 240 178 190 233 179 170 180 180 181 184 185 186 181 186 187 194 196 196 202 204 204 213 200 222 253
280 289 286 270 273 263 247 259 243 246 239 266 252 254 24 341 186 194 216 229 215 183 205 73 347 175 179 180 184 187 187 186 187 190 191 197 197 198 199 211 197 201 205 206
316 264 271 258 272 269 230 233 255 249 250 251 235 247 267 332 214 183 199 239 229 212 133 108 32 266 182 179 182 187 189 192 185 187 193 193 200 198 204 203 208 198 204 200
316 275 276 279 258 342 292 239 252 250 243 243 250 245 243 15 360 24 7 221 242 225 181 171 177 212 227 177 178 185 189 188 190 185 193 199 198 201 203 199 205 200 197 204
254 264 267 275 287 295 286 286 288 257 251 249 244 245 254 24 348 331 357 338 358 323 222 226 267 168 189 177 180 179 187 188 187 191 193 197 199 201 199 201 196 207 203 200
304 286 273 258 271 287 275 264 264 279 243 249 261 287 302 76 309 300 347 346 35 9 6 10 5 18 185 187 183 184 185 185 188 190 194 192 193 197 201 203 201 198 206 204
246 262 284 261 268 283 259 254 245 262 273 276 262 270 293 318 275 323 317 331 323 352 354 353 348 341 354 177 180 190 190 184 188 190 190 190 189 194 200 198 204 202 201 203
206 214 230 275 296 251 263 260 263 252 261 259 266 275 290 292 289 276 285 298 303 315 326 347 335 332 327 322 201 179 184 188 189 193 189 189 192 193 192 200 204 206 202 205
240 201 227 235 265 272 293 247 342 327 242 238 287 310 315 306 281 258 272 266 292 301 280 309 308 320 330 321 316 326 187 185 193 196 197 192 191 192 191 197 201 203 204 205
270 267 210 227 241 267 261 50 5 346 265 289 358 324 325 333 310 277 286 35 355 349 350 335 317 302 302 304 296 285 264 183 196 203 200 192 191 192 194 195 198 199 203 208
304 266 238 239 249 252 270 44 333 258 302 351 352 345 336 331 319 359 38 71 338 319 319 300 297 292 272 319 332 269 261 222 196 194 198 196 191 194 191 192 196 199 204 207
308 314 246 226 244 255 11 187 222 351 338 321 331 330 330 325 322 355 12 17 10 339 339 341 352 355 358 347 325 244 245 259 202 187 197 192 195 191 187 190 194 199 203 207
323 7 311 297 316 334 354 333 328 329 316 307 309 312 317 314 316 323 344 4 357 357 341 344 345 346 356 349 333 341 319 231 212 184 190 196 191 191 194 190 197 198 202 206
294 16 290 325 350 336 323 312 312 323 302 289 285 288 295 299 306 317 329 2 352 4 347 351 344 350 349 349 340 339 336 327 194 185 184 187 185 189 198 194 195 199 200 203
276 307 295 268 300 321 334 331 327 327 292 272 269 266 276 268 296 304 321 353 348 348 356 3 2 359 353 347 340 344 343 339 256 176 184 186 187 187 195 210 197 200 205 203
231 263 314 300 312 287 295 312 322 316 322 237 224 251 256 225 279 302 304 357 343 338 347 347 0 359 357 351 344 344 347 350 6 228 192 191 195 188 196 201 191 44 225 164